EW8805 Weather Reports


time (UTC)temp
C
wind
direction
speed
KPH
gust
KPH
rain 1hr
cm
rain 24hr
cm
rain mn
cm
humidity
%
barometer
mb
20260508125547 19 236 20.9 29.0 0.00 0.05 0.00 43 1010.4
20260508125021 20 229 19.3 25.7 0.00 0.05 0.00 41 1010.6
20260508124603 20 203 9.7 24.1 0.00 0.05 0.00 39 1010.6
20260508124054 19 208 9.7 22.5 0.00 0.05 0.00 41 1010.5
20260508123539 19 218 16.1 24.1 0.00 0.05 0.00 40 1010.7
20260508123036 19 246 12.9 24.1 0.00 0.05 0.00 41 1010.7
20260508122558 18 248 11.3 30.6 0.00 0.05 0.00 43 1010.7
20260508122035 18 208 16.1 30.6 0.00 0.05 0.00 45 1010.8
20260508121532 18 222 12.9 20.9 0.00 0.05 0.00 48 1010.8
20260508121102 17 154 6.4 19.3 0.00 0.05 0.00 48 1010.8
20260508120534 17 214 11.3 22.5 0.00 0.05 0.00 50 1010.9
20260508120110 17 253 14.5 25.7 0.00 0.05 0.00 50 1011.1
20260508115526 17 221 11.3 25.7 0.00 0.05 0.00 51 1011.1
20260508115042 17 191 9.7 24.1 0.00 0.05 0.00 51 1011.1
20260508114530 17 238 12.9 24.1 0.00 0.05 0.00 53 1011.2
20260508114100 17 231 11.3 27.4 0.00 0.05 0.00 55 1011.2
20260508113551 17 221 16.1 27.4 0.00 0.05 0.00 57 1011.3
20260508113024 16 267 20.9 24.1 0.00 0.05 0.00 57 1011.4
20260508112528 17 250 16.1 25.7 0.00 0.05 0.00 57 1011.5
20260508112039 17 212 12.9 25.7 0.00 0.05 0.00 58 1011.4
20260508111539 17 260 17.7 25.7 0.00 0.05 0.00 56 1011.4
20260508111044 17 239 14.5 25.7 0.00 0.05 0.00 55 1011.3
20260508110547 17 263 20.9 25.7 0.00 0.05 0.00 56 1011.4
20260508110114 17 220 14.5 24.1 0.00 0.05 0.00 56 1011.3
20260508105543 17 255 12.9 24.1 0.00 0.05 0.00 55 1011.3
20260508105036 17 235 11.3 24.1 0.00 0.05 0.00 55 1011.4
20260508104553 17 248 16.1 22.5 0.00 0.05 0.00 57 1011.5
20260508104033 17 245 9.7 25.7 0.00 0.05 0.00 58 1011.5
20260508103522 17 256 14.5 25.7 0.00 0.05 0.00 58 1011.6
20260508103106 17 262 14.5 25.7 0.00 0.05 0.00 57 1011.6
20260508102548 18 249 14.5 19.3 0.00 0.05 0.00 53 1011.5
20260508102037 18 253 6.4 14.5 0.00 0.05 0.00 51 1011.5
20260508101544 18 243 9.7 16.1 0.00 0.05 0.00 51 1011.5
20260508101024 18 261 9.7 19.3 0.00 0.05 0.00 50 1011.5
20260508100610 18 181 8.0 19.3 0.00 0.05 0.00 53 1011.5
20260508100047 18 225 8.0 19.3 0.00 0.05 0.00 54 1011.5
20260508095532 18 201 9.7 19.3 0.00 0.05 0.00 54 1011.5
20260508095023 17 191 12.9 19.3 0.00 0.05 0.00 55 1011.4
20260508094528 17 228 3.2 20.9 0.00 0.05 0.00 55 1011.4
20260508094033 17 221 14.5 20.9 0.00 0.05 0.00 54 1011.4
20260508093536 17 211 11.3 19.3 0.00 0.05 0.00 55 1011.4
20260508093033 17 199 12.9 19.3 0.00 0.05 0.00 55 1011.5
20260508092542 17 231 14.5 19.3 0.00 0.05 0.00 56 1011.4
20260508092030 17 252 14.5 17.7 0.00 0.05 0.00 57 1011.4
20260508091541 17 235 1.6 19.3 0.00 0.05 0.00 59 1011.3
20260508091057 17 243 9.7 19.3 0.00 0.05 0.00 58 1011.4
20260508090540 17 235 3.2 14.5 0.00 0.05 0.00 61 1011.3
20260508090108 16 159 8.0 17.7 0.00 0.05 0.00 61 1011.4
20260508085533 16 174 11.3 17.7 0.00 0.05 0.00 62 1011.5
20260508085032 16 184 1.6 16.1 0.00 0.05 0.00 62 1011.5
20260508084549 16 150 8.0 14.5 0.00 0.05 0.00 64 1011.4
20260508084049 16 256 0.0 6.4 0.00 0.05 0.00 67 1011.4
20260508083537 15 105 0.0 6.4 0.00 0.05 0.00 68 1011.3
20260508083026 15 100 0.0 6.4 0.00 0.05 0.00 69 1011.3
20260508082526 15 123 1.6 6.4 0.00 0.05 0.00 70 1011.3
20260508082038 15 123 0.0 6.4 0.00 0.05 0.00 69 1011.3
20260508081529 15 121 0.0 6.4 0.00 0.05 0.00 69 1011.4
20260508081028 15 132 3.2 6.4 0.00 0.05 0.00 70 1011.4
20260508080554 15 82 1.6 3.2 0.00 0.05 0.00 70 1011.4
20260508080104 15 118 0.0 3.2 0.00 0.05 0.00 71 1011.4
20260508075548 15 136 0.0 1.6 0.00 0.05 0.00 73 1011.5
20260508075027 15 123 0.0 0.0 0.00 0.05 0.00 75 1011.5
20260508074527 14 113 0.0 1.6 0.00 0.05 0.00 78 1011.5
20260508074030 13 83 0.0 3.2 0.00 0.05 0.00 78 1011.5
20260508073527 13 76 1.6 3.2 0.00 0.05 0.00 80 1011.4
20260508073031 13 89 0.0 0.0 0.00 0.05 0.00 82 1011.4
20260508072542 12 84 0.0 1.6 0.00 0.05 0.00 83 1011.3
20260508072043 12 79 0.0 1.6 0.00 0.05 0.00 86 1011.4
20260508071550 11 71 0.0 4.8 0.00 0.05 0.00 88 1011.4
20260508071020 11 65 4.8 4.8 0.00 0.05 0.00 88 1011.3
20260508070523 11 52 0.0 8.0 0.00 0.05 0.00 91 1011.2
20260508070057 10 65 3.2 8.0 0.00 0.05 0.00 91 1011.2
20260508065522 10 53 6.4 9.7 0.00 0.05 0.00 92 1011.1
20260508065045 10 56 1.6 9.7 0.00 0.05 0.00 92 1011.0
20260508064520 10 58 6.4 9.7 0.00 0.05 0.00 92 1011.1
20260508064043 10 46 3.2 4.8 0.00 0.05 0.00 92 1011.2
20260508063524 -17 0.0 0.0 0.00 0.05 0.00 1011.2
20260508063031 -17 0.0 0.0 0.00 0.05 0.00 1011.3
20260508062531 -17 0.0 0.0 0.00 0.05 0.00 1011.2
20260508062041 -17 0.0 0.0 0.00 0.05 0.00 1011.1
20260508061543 -17 0.0 0.0 0.00 0.05 0.00 1011.3
20260508061031 -17 0.0 0.0 0.00 0.05 0.00 1011.2
20260508060544 -17 0.0 0.0 0.00 0.05 0.00 1011.0
20260508060047 -17 0.0 0.0 0.00 0.05 0.00 1010.8
20260508055520 -17 0.0 0.0 0.00 0.05 0.00 1010.9
20260508055058 -17 0.0 0.0 0.00 0.05 0.00 1010.9
20260508054542 -17 0.0 0.0 0.00 0.05 0.00 1011.0
20260508054045 -17 0.0 0.0 0.00 0.05 0.00 1011.0
20260508053539 -17 0.0 0.0 0.00 0.05 0.00 1011.1
20260508053048 -17 0.0 0.0 0.00 0.05 0.00 1010.9
20260508052554 -17 0.0 0.0 0.00 0.05 0.00 1010.8
20260508052028 -17 0.0 0.0 0.00 0.05 0.00 1010.8
20260508051530 -17 0.0 0.0 0.00 0.05 0.00 1011.0
20260508051026 -17 0.0 0.0 0.00 0.05 0.00 1010.9
20260508050528 -17 0.0 0.0 0.00 0.05 0.00 1010.9
20260508050048 -17 0.0 0.0 0.00 0.05 0.00 1010.9
20260508045556 -17 0.0 0.0 0.00 0.05 0.00 1010.8
20260508045043 -17 0.0 0.0 0.00 0.05 0.00 1010.8
20260508044527 -17 0.0 0.0 0.00 0.05 0.00 1010.7
20260508044034 9 273 0.0 0.0 0.00 0.05 0.00 92 1010.8
20260508043528 9 273 0.0 0.0 0.00 0.05 0.00 92 1010.9
20260508043027 9 273 0.0 0.0 0.00 0.05 0.00 93 1010.8
20260508042545 9 60 0.0 0.0 0.00 0.05 0.00 93 1010.8
20260508042056 9 60 0.0 0.0 0.00 0.05 0.00 92 1010.6
20260508041538 9 60 0.0 0.0 0.00 0.05 0.00 92 1010.4
20260508041036 9 60 0.0 0.0 0.00 0.05 0.00 93 1010.4
20260508040542 9 60 0.0 0.0 0.00 0.05 0.00 92 1010.4
20260508040058 9 67 0.0 0.0 0.00 0.05 0.00 92 1010.4
20260508035524 9 67 0.0 0.0 0.00 0.05 0.00 92 1010.5
20260508035025 9 67 0.0 1.6 0.00 0.05 0.00 92 1010.5
20260508034604 9 67 0.0 1.6 0.00 0.05 0.00 92 1010.5
20260508034029 9 67 0.0 0.0 0.00 0.05 0.00 92 1010.5
20260508033607 9 66 0.0 0.0 0.00 0.05 0.00 92 1010.4
20260508033033 9 67 0.0 0.0 0.00 0.05 0.00 92 1010.4
20260508032532 9 67 0.0 0.0 0.00 0.05 0.00 92 1010.4
20260508032042 9 66 0.0 0.0 0.00 0.05 0.00 92 1010.4
20260508031529 9 77 0.0 1.6 0.00 0.05 0.00 92 1010.5
20260508031027 9 64 0.0 3.2 0.00 0.05 0.00 93 1010.6
20260508030542 9 44 1.6 3.2 0.00 0.05 0.00 93 1010.6
20260508030047 9 44 0.0 1.6 0.00 0.05 0.00 92 1010.6
20260508025527 9 44 0.0 4.8 0.00 0.05 0.00 92 1010.5
20260508025038 9 44 1.6 4.8 0.00 0.05 0.00 92 1010.4
20260508024548 9 73 0.0 0.0 0.00 0.05 0.00 92 1010.4
20260508024034 9 74 0.0 3.2 0.00 0.05 0.00 92 1010.4
20260508023537 9 84 0.0 3.2 0.00 0.05 0.00 92 1010.5
20260508023020 9 85 0.0 4.8 0.00 0.05 0.00 92 1010.5
20260508022540 9 68 1.6 6.4 0.00 0.05 0.00 91 1010.4
20260508022040 9 88 3.2 6.4 0.00 0.05 0.00 91 1010.4
20260508021541 9 61 1.6 6.4 0.00 0.05 0.00 91 1010.4
20260508021043 10 94 3.2 6.4 0.00 0.05 0.00 91 1010.4
20260508020544 9 91 1.6 6.4 0.00 0.05 0.00 91 1010.5
20260508020054 9 76 3.2 6.4 0.00 0.05 0.00 91 1010.5
20260508015545 10 95 1.6 6.4 0.00 0.05 0.00 91 1010.4
20260508015048 10 84 3.2 6.4 0.00 0.05 0.00 91 1010.4
20260508014535 10 80 3.2 8.0 0.00 0.05 0.00 91 1010.5
20260508014035 10 92 3.2 8.0 0.00 0.05 0.00 91 1010.4
20260508013523 10 73 3.2 8.0 0.00 0.05 0.00 91 1010.5
20260508013042 10 86 3.2 9.7 0.00 0.05 0.00 91 1010.5
20260508012558 10 83 6.4 9.7 0.00 0.05 0.00 91 1010.5
20260508012044 10 81 4.8 8.0 0.00 0.05 0.00 91 1010.6
20260508011525 10 88 0.0 8.0 0.00 0.05 0.00 91 1010.7
20260508011020 10 65 6.4 8.0 0.00 0.05 0.00 91 1010.8
20260508010550 10 54 6.4 8.0 0.00 0.05 0.00 90 1010.7
20260508010100 10 64 4.8 8.0 0.00 0.05 0.00 90 1010.8
20260508005524 10 62 4.8 8.0 0.00 0.05 0.00 90 1010.8
20260508005036 10 74 4.8 9.7 0.00 0.05 0.00 90 1010.9
20260508004541 10 83 4.8 9.7 0.00 0.05 0.00 90 1011.0
20260508004023 10 70 8.0 8.0 0.00 0.05 0.00 90 1011.0
20260508003540 10 61 4.8 9.7 0.00 0.05 0.00 89 1011.0
20260508003044 10 65 6.4 11.3 0.00 0.05 0.00 89 1011.1
20260508002527 10 61 8.0 11.3 0.00 0.05 0.00 89 1011.0
20260508002025 10 86 4.8 11.3 0.00 0.05 0.00 89 1011.1
20260508001539 10 72 8.0 9.7 0.00 0.05 0.00 89 1011.2
20260508001024 10 84 4.8 8.0 0.00 0.05 0.00 89 1011.3
20260508000602 10 63 4.8 8.0 0.00 0.05 0.00 88 1011.3
20260508000052 10 67 4.8 9.7 0.00 0.05 0.00 88 1011.3
20260507235545 10 71 8.0 11.3 0.00 0.05 0.00 88 1011.3
20260507235023 10 77 8.0 11.3 0.00 0.05 0.00 87 1011.4
20260507234538 10 60 8.0 11.3 0.00 0.05 0.00 87 1011.4
20260507234030 10 72 6.4 9.7 0.00 0.05 0.00 87 1011.5
20260507233542 11 86 4.8 9.7 0.00 0.05 0.00 87 1011.6
20260507233027 11 66 6.4 14.5 0.00 0.05 0.00 86 1011.6
20260507232555 11 70 8.0 14.5 0.00 0.05 0.00 86 1011.6
20260507232034 11 61 9.7 14.5 0.00 0.05 0.00 86 1011.6
20260507231541 11 56 9.7 14.5 0.00 0.05 0.00 85 1011.6
20260507231039 11 75 8.0 14.5 0.00 0.05 0.00 85 1011.7
20260507230528 11 80 9.7 16.1 0.00 0.05 0.00 84 1011.8
20260507230047 11 63 8.0 16.1 0.00 0.05 0.00 84 1011.8
20260507225538 11 60 11.3 16.1 0.00 0.05 0.00 84 1011.8
20260507225048 11 68 9.7 16.1 0.00 0.05 0.00 83 1011.8
20260507224530 11 84 9.7 17.7 0.00 0.05 0.00 82 1011.9
20260507224035 12 68 12.9 17.7 0.00 0.05 0.00 82 1011.9
20260507223525 12 74 12.9 16.1 0.00 0.05 0.00 82 1011.9
20260507223027 12 58 11.3 22.5 0.00 0.05 0.00 81 1011.9
20260507222522 12 69 11.3 22.5 0.00 0.05 0.00 80 1012.0
20260507222028 12 60 12.9 22.5 0.00 0.05 0.00 80 1012.0
20260507221527 12 58 11.3 22.5 0.00 0.05 0.00 79 1012.0
20260507221036 12 76 14.5 17.7 0.00 0.05 0.00 79 1012.0
20260507220535 12 66 11.3 16.1 0.00 0.05 0.00 78 1012.0
20260507215542 13 77 11.3 17.7 0.00 0.05 0.05 76 1012.0
20260507215045 13 61 9.7 16.1 0.00 0.05 0.05 75 1012.1
20260507214524 13 64 11.3 16.1 0.00 0.05 0.05 73 1012.0
20260507214020 13 56 8.0 14.5 0.00 0.05 0.05 71 1012.0
20260507213528 13 75 8.0 12.9 0.00 0.05 0.05 70 1012.0
20260507213027 13 85 6.4 14.5 0.00 0.05 0.05 70 1011.9
20260507212605 14 66 6.4 16.1 0.00 0.05 0.05 70 1011.8
20260507212054 14 77 9.7 17.7 0.00 0.05 0.05 70 1011.8
20260507211522 14 63 9.7 19.3 0.00 0.05 0.05 70 1011.7
20260507211045 13 44 12.9 25.7 0.00 0.05 0.05 72 1011.7
20260507210534 13 68 14.5 25.7 0.00 0.05 0.05 72 1011.6
20260507210049 13 74 19.3 24.1 0.00 0.05 0.05 74 1011.6
20260507205545 13 64 11.3 17.7 0.00 0.05 0.05 75 1011.5
20260507205025 13 87 6.4 14.5 0.00 0.05 0.05 76 1011.5
20260507204537 13 65 11.3 12.9 0.00 0.05 0.05 78 1011.5
20260507204027 13 61 6.4 12.9 0.00 0.05 0.05 79 1011.5
20260507203532 13 49 3.2 12.9 0.00 0.05 0.05 79 1011.4
20260507203022 13 25 6.4 12.9 0.00 0.05 0.05 79 1011.2
20260507202543 13 65 6.4 8.0 0.00 0.05 0.05 78 1011.1
20260507202039 13 64 6.4 8.0 0.00 0.05 0.05 77 1010.9
20260507201545 13 70 6.4 9.7 0.00 0.05 0.05 77 1010.9
20260507201058 13 60 8.0 9.7 0.00 0.05 0.05 77 1010.8
20260507200551 13 52 6.4 8.0 0.00 0.05 0.05 77 1010.6
20260507200119 13 56 3.2 6.4 0.00 0.05 0.05 76 1010.5
20260507195606 14 44 0.0 6.4 0.00 0.05 0.05 73 1010.5
20260507195025 14 71 0.0 3.2 0.00 0.05 0.05 71 1010.5
20260507194552 14 80 0.0 1.6 0.00 0.05 0.05 71 1010.5
20260507194038 14 79 0.0 1.6 0.00 0.05 0.05 71 1010.5
20260507193523 14 79 0.0 4.8 0.00 0.05 0.05 70 1010.4
20260507193030 15 79 3.2 6.4 0.00 0.05 0.05 68 1010.2
20260507192544 15 72 1.6 6.4 0.00 0.05 0.05 68 1010.2
20260507192044 15 96 3.2 8.0 0.00 0.05 0.05 67 1010.0
20260507191530 15 70 3.2 9.7 0.00 0.05 0.05 67 1009.8
20260507191023 15 85 6.4 9.7 0.00 0.05 0.05 67 1009.7
20260507190538 15 89 6.4 16.1 0.00 0.05 0.05 67 1009.8
20260507190110 15 107 8.0 17.7 0.00 0.05 0.05 66 1009.7
20260507185547 15 98 8.0 17.7 0.00 0.05 0.05 66 1009.6
20260507185028 15 85 9.7 19.3 0.00 0.05 0.05 65 1009.4
20260507184534 15 111 12.9 19.3 0.00 0.05 0.05 65 1009.3
20260507184033 15 117 11.3 24.1 0.00 0.05 0.05 66 1009.3
20260507183537 15 58 16.1 29.0 0.00 0.05 0.05 66 1009.2
20260507183106 15 82 14.5 29.0 0.00 0.05 0.05 66 1009.1
20260507182520 16 98 20.9 25.7 0.00 0.05 0.05 66 1009.1
20260507182037 16 103 17.7 25.7 0.00 0.05 0.05 65 1009.0
20260507181521 16 101 12.9 27.4 0.00 0.05 0.05 65 1009.0
20260507181051 16 146 22.5 27.4 0.00 0.05 0.05 65 1009.0
20260507180535 16 117 19.3 29.0 0.03 0.05 0.05 64 1008.9
20260507180057 16 122 19.3 35.4 0.05 0.05 0.05 63 1008.9
20260507175546 16 135 25.7 35.4 0.05 0.05 0.05 62 1008.8
20260507175023 17 101 16.1 30.6 0.05 0.05 0.05 62 1008.7
20260507174605 17 76 16.1 30.6 0.05 0.05 0.05 61 1008.7
20260507174026 17 70 11.3 20.9 0.05 0.05 0.05 58 1008.7
20260507173529 17 51 3.2 8.0 0.05 0.05 0.05 61 1008.6
20260507173029 17 54 6.4 11.3 0.05 0.05 0.05 62 1008.6
20260507172523 17 60 4.8 11.3 0.05 0.05 0.05 64 1008.5
20260507172025 17 61 9.7 12.9 0.05 0.05 0.05 61 1008.5
20260507171541 17 75 9.7 12.9 0.05 0.05 0.05 61 1008.4
20260507171042 17 72 8.0 11.3 0.05 0.05 0.05 58 1008.4
20260507170529 17 72 6.4 11.3 0.03 0.03 0.03 53 1008.5
20260507170106 18 53 3.2 14.5 0.00 0.00 0.00 52 1008.5
20260507165543 18 91 8.0 14.5 0.00 0.00 0.00 49 1008.4
20260507165027 18 110 8.0 17.7 0.00 0.00 0.00 48 1008.3
20260507164536 18 70 12.9 17.7 0.00 0.00 0.00 49 1008.2
20260507164043 18 84 11.3 16.1 0.00 0.00 0.00 50 1008.2
20260507163527 18 98 12.9 17.7 0.00 0.00 0.00 50 1008.2
20260507163025 18 96 9.7 19.3 0.00 0.00 0.00 50 1008.2
20260507162541 18 78 12.9 19.3 0.00 0.00 0.00 51 1008.2
20260507162021 18 64 9.7 19.3 0.00 0.00 0.00 50 1008.2
20260507161540 18 104 14.5 19.3 0.00 0.00 0.00 51 1008.2
20260507161025 18 75 12.9 20.9 0.00 0.00 0.00 49 1008.2
20260507160529 18 46 16.1 19.3 0.00 0.00 0.00 48 1008.2
20260507160058 18 76 14.5 22.5 0.00 0.00 0.00 47 1008.2
20260507155540 18 64 12.9 22.5 0.00 0.00 0.00 46 1008.1
20260507155038 18 90 9.7 19.3 0.00 0.00 0.00 48 1008.0
20260507154524 18 86 9.7 12.9 0.00 0.00 0.00 47 1008.2
20260507154051 18 98 8.0 16.1 0.00 0.00 0.00 47 1008.2
20260507153540 18 49 9.7 20.9 0.00 0.00 0.00 47 1008.2
20260507153058 18 56 14.5 22.5 0.00 0.00 0.00 48 1008.3
20260507152542 18 75 14.5 22.5 0.00 0.00 0.00 48 1008.2
20260507152039 18 53 12.9 25.7 0.00 0.00 0.00 48 1008.2
20260507151547 18 95 17.7 27.4 0.00 0.00 0.00 48 1008.3
20260507151026 18 72 16.1 25.7 0.00 0.00 0.00 48 1008.3
20260507150541 18 60 20.9 25.7 0.00 0.00 0.00 48 1008.3
20260507150100 18 72 19.3 24.1 0.00 0.00 0.00 48 1008.5
20260507145540 18 79 12.9 22.5 0.00 0.00 0.00 47 1008.5
20260507145022 19 74 11.3 22.5 0.00 0.00 0.00 46 1008.5
20260507144556 20 75 17.7 22.5 0.00 0.00 0.00 44 1008.6
20260507144045 20 110 14.5 19.3 0.00 0.00 0.00 41 1008.7
20260507143547 21 107 0.0 19.3 0.00 0.00 0.00 35 1008.8
20260507143036 21 243 11.3 19.3 0.00 0.00 0.00 35 1008.8
20260507142525 21 208 8.0 19.3 0.00 0.00 0.00 35 1008.8
20260507142037 21 225 4.8 9.7 0.00 0.00 0.00 36 1008.8
20260507141545 21 258 1.6 19.3 0.00 0.00 0.00 36 1008.7
20260507141052 21 177 9.7 19.3 0.00 0.00 0.00 36 1008.8
20260507140545 21 232 11.3 17.7 0.00 0.00 0.00 37 1008.8
20260507140045 20 246 1.6 11.3 0.00 0.00 0.00 38 1008.8
20260507135529 20 223 1.6 11.3 0.00 0.00 0.00 38 1008.9
20260507135106 20 211 6.4 11.3 0.00 0.00 0.00 39 1008.9
20260507134542 20 253 4.8 17.7 0.00 0.00 0.00 40 1008.9
20260507134045 20 238 6.4 17.7 0.00 0.00 0.00 40 1009.0
20260507133536 20 271 6.4 16.1 0.00 0.00 0.00 40 1008.9
20260507133044 20 285 6.4 14.5 0.00 0.00 0.00 41 1009.1
20260507132556 20 293 1.6 16.1 0.00 0.00 0.00 42 1009.2
20260507132042 20 281 8.0 16.1 0.00 0.00 0.00 41 1009.2
20260507131532 19 274 4.8 14.5 0.00 0.00 0.00 41 1009.4
20260507131043 19 280 9.7 16.1 0.00 0.00 0.00 42 1009.3
20260507130526 18 109 1.6 16.1 0.00 0.00 0.00 43 1009.4
20260507130058 18 226 8.0 24.1 0.00 0.00 0.00 45 1009.4